Previsão horária em Alkaladka

Hoje, 16 Junho, Quarta-feira

Tempo Temperatura Precipitação Vento Pressão Humidade
00:00 +17°C° 0 mm 2 m/s 745 mmHg 92%
01:00 +17°C° 0 mm 2 m/s 745 mmHg 92%
02:00 +17°C° 0 mm 2 m/s 745 mmHg 92%
03:00 +16°C° 0 mm 2 m/s 745 mmHg 93%
04:00 +17°C° 0 mm 2 m/s 745 mmHg 92%
05:00 +18°C° 0 mm 2 m/s 745 mmHg 91%
06:00 +19°C° 0 mm 2 m/s 745 mmHg 90%
07:00 +20°C° 0 mm 2 m/s 745 mmHg 85%
08:00 +23°C° 0 mm 2 m/s 745 mmHg 80%
09:00 +24°C° 0 mm 2 m/s 746 mmHg 75%
10:00 +25°C° 0 mm 2 m/s 746 mmHg 70%
11:00 +26°C° 0 mm 2 m/s 746 mmHg 66%
12:00 +27°C° 0 mm 2 m/s 746 mmHg 61%
13:00 +27°C° 0.1 mm 3 m/s 746 mmHg 62%
14:00 +27°C° 0.1 mm 3 m/s 746 mmHg 62%
15:00 +27°C° 0.1 mm 4 m/s 746 mmHg 63%
16:00 +27°C° 0.4 mm 4 m/s 747 mmHg 68%
17:00 +26°C° 0.4 mm 3 m/s 747 mmHg 72%
18:00 +25°C° 0.4 mm 3 m/s 747 mmHg 77%
19:00 +24°C° 0.1 mm 3 m/s 747 mmHg 81%
20:00 +22°C° 0.1 mm 3 m/s 748 mmHg 85%
21:00 +20°C° 0.1 mm 3 m/s 748 mmHg 88%
22:00 +20°C° 0 mm 3 m/s 748 mmHg 90%
23:00 +19°C° 0 mm 3 m/s 748 mmHg 92%

Amanhã, 17 Junho, Quinta-feira

Tempo Temperatura Precipitação Vento Pressão Humidade
00:00 +18°C° 0 mm 3 m/s 749 mmHg 94%
01:00 +18°C° 0 mm 3 m/s 749 mmHg 95%
02:00 +18°C° 0 mm 3 m/s 749 mmHg 96%
03:00 +17°C° 0 mm 3 m/s 750 mmHg 97%
04:00 +18°C° 0 mm 3 m/s 750 mmHg 95%
05:00 +18°C° 0 mm 4 m/s 751 mmHg 93%
06:00 +18°C° 0 mm 4 m/s 751 mmHg 92%
07:00 +19°C° 0 mm 5 m/s 751 mmHg 85%
08:00 +21°C° 0 mm 5 m/s 752 mmHg 79%
09:00 +22°C° 0 mm 6 m/s 752 mmHg 72%
10:00 +22°C° 0 mm 6 m/s 752 mmHg 69%
11:00 +23°C° 0 mm 6 m/s 753 mmHg 65%
12:00 +24°C° 0 mm 6 m/s 753 mmHg 62%
13:00 +24°C° 0 mm 6 m/s 753 mmHg 60%
14:00 +24°C° 0 mm 6 m/s 753 mmHg 58%
15:00 +23°C° 0 mm 6 m/s 753 mmHg 56%
16:00 +23°C° 0 mm 6 m/s 754 mmHg 60%
17:00 +22°C° 0 mm 5 m/s 754 mmHg 63%
18:00 +22°C° 0 mm 4 m/s 754 mmHg 67%
19:00 +20°C° 0 mm 4 m/s 755 mmHg 72%
20:00 +18°C° 0 mm 4 m/s 755 mmHg 77%
21:00 +17°C° 0 mm 3 m/s 755 mmHg 82%
22:00 +16°C° 0 mm 3 m/s 755 mmHg 82%
23:00 +14°C° 0 mm 3 m/s 755 mmHg 82%

Depois de amanhã, 18 Junho, Sexta-feira

Tempo Temperatura Precipitação Vento Pressão Humidade
00:00 +14°C° 0 mm 3 m/s 755 mmHg 83%
01:00 +13°C° 0 mm 3 m/s 756 mmHg 82%
02:00 +13°C° 0 mm 3 m/s 756 mmHg 82%
03:00 +12°C° 0 mm 3 m/s 756 mmHg 82%
04:00 +13°C° 0 mm 3 m/s 757 mmHg 81%
05:00 +13°C° 0 mm 4 m/s 757 mmHg 81%
06:00 +14°C° 0 mm 4 m/s 757 mmHg 80%
07:00 +15°C° 0 mm 4 m/s 757 mmHg 74%
08:00 +18°C° 0 mm 4 m/s 758 mmHg 69%
09:00 +20°C° 0 mm 5 m/s 758 mmHg 63%
10:00 +21°C° 0 mm 5 m/s 758 mmHg 60%
11:00 +21°C° 0 mm 5 m/s 758 mmHg 56%
12:00 +22°C° 0 mm 6 m/s 758 mmHg 52%
13:00 +22°C° 0 mm 6 m/s 758 mmHg 52%
14:00 +22°C° 0 mm 6 m/s 758 mmHg 51%
15:00 +23°C° 0 mm 5 m/s 758 mmHg 51%
16:00 +22°C° 0 mm 5 m/s 758 mmHg 56%
17:00 +22°C° 0 mm 5 m/s 758 mmHg 61%
18:00 +21°C° 0 mm 4 m/s 758 mmHg 65%
19:00 +20°C° 0 mm 4 m/s 758 mmHg 71%
20:00 +18°C° 0 mm 3 m/s 759 mmHg 76%
21:00 +16°C° 0 mm 3 m/s 759 mmHg 81%
22:00 +14°C° 0 mm 3 m/s 759 mmHg 81%
23:00 +14°C° 0 mm 3 m/s 759 mmHg 81%

19 Junho, Sábado

Tempo Temperatura Precipitação Vento Pressão Humidade
00:00 +13°C° 0 mm 3 m/s 759 mmHg 81%
01:00 +14°C° 0 mm 2 m/s 760 mmHg 83%
02:00 +13°C° 0 mm 2 m/s 760 mmHg 85%
03:00 +13°C° 0 mm 2 m/s 760 mmHg 87%
04:00 +14°C° 0 mm 2 m/s 760 mmHg 84%
05:00 +15°C° 0 mm 1 m/s 760 mmHg 82%
06:00 +15°C° 0 mm 1 m/s 761 mmHg 79%
07:00 +17°C° 0 mm 2 m/s 761 mmHg 73%
08:00 +19°C° 0 mm 2 m/s 761 mmHg 68%
09:00 +20°C° 0 mm 2 m/s 761 mmHg 62%
10:00 +21°C° 0 mm 2 m/s 761 mmHg 59%
11:00 +23°C° 0 mm 2 m/s 760 mmHg 56%
12:00 +24°C° 0 mm 2 m/s 760 mmHg 52%
13:00 +25°C° 0 mm 2 m/s 760 mmHg 51%
14:00 +25°C° 0 mm 2 m/s 760 mmHg 51%
15:00 +26°C° 0 mm 1 m/s 760 mmHg 50%
16:00 +26°C° 0 mm 1 m/s 759 mmHg 53%
17:00 +25°C° 0 mm 1 m/s 759 mmHg 56%
18:00 +25°C° 0 mm 1 m/s 759 mmHg 60%
19:00 +23°C° 0 mm 1 m/s 759 mmHg 65%
20:00 +20°C° 0 mm 0 m/s 759 mmHg 70%
21:00 +18°C° 0 mm 0 m/s 759 mmHg 75%
22:00 +17°C° 0 mm 0 m/s 759 mmHg 76%
23:00 +19°C° 0 mm 1 m/s 759 mmHg 77%

20 Junho, Domingo

Tempo Temperatura Precipitação Vento Pressão Humidade
00:00 +18°C° 0 mm 1 m/s 759 mmHg 79%
01:00 +18°C° 0 mm 1 m/s 759 mmHg 81%
02:00 +16°C° 0 mm 1 m/s 759 mmHg 83%
03:00 +16°C° 0 mm 1 m/s 759 mmHg 84%
04:00 +18°C° 0 mm 1 m/s 759 mmHg 84%
05:00 +19°C° 0 mm 1 m/s 759 mmHg 83%
06:00 +20°C° 0 mm 1 m/s 759 mmHg 82%
07:00 +22°C° 0 mm 1 m/s 759 mmHg 78%
08:00 +23°C° 0 mm 1 m/s 759 mmHg 75%
09:00 +25°C° 0 mm 2 m/s 759 mmHg 71%
10:00 +26°C° 0 mm 2 m/s 759 mmHg 68%
11:00 +27°C° 0 mm 2 m/s 758 mmHg 64%
12:00 +28°C° 0 mm 2 m/s 758 mmHg 60%
13:00 +28°C° 0 mm 2 m/s 758 mmHg 59%
14:00 +29°C° 0 mm 2 m/s 758 mmHg 57%
15:00 +29°C° 0 mm 2 m/s 757 mmHg 56%
16:00 +29°C° 0 mm 2 m/s 757 mmHg 59%
17:00 +29°C° 0 mm 2 m/s 757 mmHg 63%
18:00 +29°C° 0 mm 2 m/s 757 mmHg 66%
19:00 +27°C° 0 mm 2 m/s 757 mmHg 70%
20:00 +25°C° 0 mm 2 m/s 757 mmHg 75%
21:00 +23°C° 0 mm 2 m/s 757 mmHg 79%
22:00 +23°C° 0 mm 2 m/s 757 mmHg 81%
23:00 +21°C° 0 mm 2 m/s 757 mmHg 83%

21 Junho, Segunda-feira

Tempo Temperatura Precipitação Vento Pressão Humidade
00:00 +21°C° 0 mm 2 m/s 756 mmHg 85%
01:00 +20°C° 0 mm 2 m/s 756 mmHg 86%
02:00 +20°C° 0 mm 2 m/s 756 mmHg 87%
03:00 +21°C° 0 mm 1 m/s 756 mmHg 88%
04:00 +21°C° 0 mm 1 m/s 756 mmHg 87%
05:00 +22°C° 0 mm 1 m/s 756 mmHg 85%
06:00 +23°C° 0 mm 1 m/s 756 mmHg 84%
07:00 +24°C° 0 mm 2 m/s 756 mmHg 79%
08:00 +26°C° 0 mm 2 m/s 756 mmHg 73%
09:00 +27°C° 0 mm 2 m/s 756 mmHg 68%
10:00 +28°C° 0 mm 2 m/s 756 mmHg 63%
11:00 +29°C° 0 mm 2 m/s 756 mmHg 59%
12:00 +30°C° 0 mm 2 m/s 755 mmHg 55%
13:00 +30°C° 0 mm 1 m/s 755 mmHg 53%
14:00 +31°C° 0 mm 1 m/s 755 mmHg 50%
15:00 +29°C° 0 mm 0 m/s 754 mmHg 47%
16:00 +30°C° 0 mm 1 m/s 754 mmHg 53%
17:00 +30°C° 0 mm 1 m/s 754 mmHg 60%
18:00 +29°C° 0 mm 1 m/s 754 mmHg 66%
19:00 +28°C° 0 mm 1 m/s 754 mmHg 67%
20:00 +27°C° 0 mm 1 m/s 753 mmHg 68%
21:00 +25°C° 0 mm 1 m/s 753 mmHg 69%
22:00 +25°C° 0 mm 1 m/s 753 mmHg 70%
23:00 +24°C° 0 mm 2 m/s 753 mmHg 72%
Mostrar mais